Location: Cudham
(51.3000°N, 0.0667°E)
Time: 23:28:40
(UTC+00:00)

Cosmos 1461 - Pass Details

Date: 15 May 2026
Orbit: 422 x 476 km, 65.0° (Epoch: 6 June)

Event Time Altitude Azimuth Distance (km) Brightness Sun altitude
Rises 21:17:55 0° 222° (SW) 2,538 6.1 -11.6°
Reaches altitude 10° 21:20:03 10° 223° (SW) 1,660 5.2 -11.8°
Maximum altitude 21:23:46 82° 311° (NW) 491 2.6 -12.2°
Drops below altitude 10° 21:27:28 10° 40° (NE) 1,654 5.4 -12.5°
Sets 21:29:36 0° 41° (NE) 2,528 6.4 -12.7°
